owner,sensor,date,latitude,longitude,vertical_datum,wind_speed,wind_to_direction,wind_speed_of_gust,qcFlag 
WAVCIS,ioos:station:WAVCIS:CSI16:1,2010-07-01T00:00:00Z,29.4012,-89.0355,10.0,5.147,107.0,,'11111222,11111222,99999999' 
WAVCIS,ioos:station:WAVCIS:CSI16:1,2010-07-01T01:00:00Z,29.4012,-89.0355,10.0,5.26,103.0,,'11111222,11111222,99999999' 
WAVCIS,ioos:station:WAVCIS:CSI16:1,2010-07-01T02:00:00Z,29.4012,-89.0355,10.0,5.322,115.0,,'11111222,11111222,99999999' 
WAVCIS,ioos:station:WAVCIS:CSI16:1,2010-07-01T03:00:00Z,29.4012,-89.0355,10.0,6.441,156.0,,'11111222,11111222,99999999' 
WAVCIS,ioos:station:WAVCIS:CSI16:1,2010-07-01T04:00:00Z,29.4012,-89.0355,10.0,4.921,128.0,,'11111222,11111222,99999999' 
WAVCIS,ioos:station:WAVCIS:CSI16:1,2010-07-01T05:00:00Z,29.4012,-89.0355,10.0,5.182,116.0,,'11111222,11111222,99999999' 
WAVCIS,ioos:station:WAVCIS:CSI16:1,2010-07-01T06:00:00Z,29.4012,-89.0355,10.0,3.633,100.0,,'11111222,11111222,99999999' 
WAVCIS,ioos:station:WAVCIS:CSI16:1,2010-07-01T07:00:00Z,29.4012,-89.0355,10.0,7.28,96.0,,'11111222,11111222,99999999' 
WAVCIS,ioos:station:WAVCIS:CSI16:1,2010-07-01T08:00:00Z,29.4012,-89.0355,10.0,8.47,107.0,,'11111222,11111222,99999999' 
WAVCIS,ioos:station:WAVCIS:CSI16:1,2010-07-01T09:00:00Z,29.4012,-89.0355,10.0,11.17,136.0,,'11111222,11111222,99999999' 
WAVCIS,ioos:station:WAVCIS:CSI16:1,2010-07-01T10:00:00Z,29.4012,-89.0355,10.0,5.135,105.0,,'11111222,11111222,99999999' 
WAVCIS,ioos:station:WAVCIS:CSI16:1,2010-07-01T11:00:00Z,29.4012,-89.0355,10.0,5.894,114.0,,'11111222,11111222,99999999' 
WAVCIS,ioos:station:WAVCIS:CSI16:1,2010-07-01T12:00:00Z,29.4012,-89.0355,10.0,6.117,106.0,,'11111222,11111222,99999999' 
WAVCIS,ioos:station:WAVCIS:CSI16:1,2010-07-01T13:00:00Z,29.4012,-89.0355,10.0,8.16,110.0,,'11111222,11111222,99999999' 
WAVCIS,ioos:station:WAVCIS:CSI16:1,2010-07-01T14:00:00Z,29.4012,-89.0355,10.0,6.483,95.0,,'11111222,11111222,99999999' 
WAVCIS,ioos:station:WAVCIS:CSI16:1,2010-07-01T15:00:00Z,29.4012,-89.0355,10.0,5.054,100.0,,'11111222,11111222,99999999' 
WAVCIS,ioos:station:WAVCIS:CSI16:1,2010-07-01T16:00:00Z,29.4012,-89.0355,10.0,4.183,80.0,,'11111222,11111222,99999999' 
WAVCIS,ioos:station:WAVCIS:CSI16:1,2010-07-01T17:00:00Z,29.4012,-89.0355,10.0,4.271,89.0,,'11111222,11111222,99999999' 
WAVCIS,ioos:station:WAVCIS:CSI16:1,2010-07-01T18:00:00Z,29.4012,-89.0355,10.0,1.513,43.0,,'11111222,11111222,99999999' 
WAVCIS,ioos:station:WAVCIS:CSI16:1,2010-07-01T19:00:00Z,29.4012,-89.0355,10.0,2.141,77.0,,'11111222,11111222,99999999' 
WAVCIS,ioos:station:WAVCIS:CSI16:1,2010-07-01T20:00:00Z,29.4012,-89.0355,10.0,4.23,107.0,,'11111222,11111222,99999999' 
WAVCIS,ioos:station:WAVCIS:CSI16:1,2010-07-01T21:00:00Z,29.4012,-89.0355,10.0,2.596,113.0,,'11111222,11111222,99999999' 
WAVCIS,ioos:station:WAVCIS:CSI16:1,2010-07-01T22:00:00Z,29.4012,-89.0355,10.0,2.057,304.0,,'11111222,11111222,99999999' 
WAVCIS,ioos:station:WAVCIS:CSI16:1,2010-07-01T23:00:00Z,29.4012,-89.0355,10.0,3.533,359.0,,'11111222,11111222,99999999' 
WAVCIS,ioos:station:WAVCIS:CSI16:1,2010-07-02T00:00:00Z,29.4012,-89.0355,10.0,4.663,13.0,,'11111222,11111222,99999999' 
WAVCIS,ioos:station:WAVCIS:CSI16:1,2010-07-02T01:00:00Z,29.4012,-89.0355,10.0,5.493,92.0,,'11111222,11111222,99999999' 
WAVCIS,ioos:station:WAVCIS:CSI16:1,2010-07-02T02:00:00Z,29.4012,-89.0355,10.0,5.743,88.0,,'11111222,11111222,99999999' 
WAVCIS,ioos:station:WAVCIS:CSI16:1,2010-07-02T03:00:00Z,29.4012,-89.0355,10.0,2.845,74.0,,'11111222,11111222,99999999' 
WAVCIS,ioos:station:WAVCIS:CSI16:1,2010-07-02T04:00:00Z,29.4012,-89.0355,10.0,4.598,80.0,,'11111222,11111222,99999999' 
WAVCIS,ioos:station:WAVCIS:CSI16:1,2010-07-02T05:00:00Z,29.4012,-89.0355,10.0,1.837,66.0,,'11111222,11111222,99999999' 
WAVCIS,ioos:station:WAVCIS:CSI16:1,2010-07-02T06:00:00Z,29.4012,-89.0355,10.0,4.857,88.0,,'11111222,11111222,99999999' 
WAVCIS,ioos:station:WAVCIS:CSI16:1,2010-07-02T07:00:00Z,29.4012,-89.0355,10.0,5.152,96.0,,'11111222,11111222,99999999' 
WAVCIS,ioos:station:WAVCIS:CSI16:1,2010-07-02T08:00:00Z,29.4012,-89.0355,10.0,4.414,104.0,,'11111222,11111222,99999999' 
WAVCIS,ioos:station:WAVCIS:CSI16:1,2010-07-02T09:00:00Z,29.4012,-89.0355,10.0,4.231,128.0,,'11111222,11111222,99999999' 
WAVCIS,ioos:station:WAVCIS:CSI16:1,2010-07-02T10:00:00Z,29.4012,-89.0355,10.0,4.056,114.0,,'11111222,11111222,99999999' 
WAVCIS,ioos:station:WAVCIS:CSI16:1,2010-07-02T11:00:00Z,29.4012,-89.0355,10.0,3.425,100.0,,'11111222,11111222,99999999' 
WAVCIS,ioos:station:WAVCIS:CSI16:1,2010-07-02T12:00:00Z,29.4012,-89.0355,10.0,3.128,102.0,,'11111222,11111222,99999999' 
WAVCIS,ioos:station:WAVCIS:CSI16:1,2010-07-02T13:00:00Z,29.4012,-89.0355,10.0,2.195,74.0,,'11111222,11111222,99999999' 
WAVCIS,ioos:station:WAVCIS:CSI16:1,2010-07-02T14:00:00Z,29.4012,-89.0355,10.0,3.772,91.0,,'11111222,11111222,99999999' 
WAVCIS,ioos:station:WAVCIS:CSI16:1,2010-07-02T15:00:00Z,29.4012,-89.0355,10.0,3.503,82.0,,'11111222,11111222,99999999' 
WAVCIS,ioos:station:WAVCIS:CSI16:1,2010-07-02T16:00:00Z,29.4012,-89.0355,10.0,1.484,71.0,,'11111222,11111222,99999999' 
WAVCIS,ioos:station:WAVCIS:CSI16:1,2010-07-02T17:00:00Z,29.4012,-89.0355,10.0,3.328,19.0,,'11111222,11111222,99999999' 
WAVCIS,ioos:station:WAVCIS:CSI16:1,2010-07-02T18:00:00Z,29.4012,-89.0355,10.0,1.127,53.0,,'11111222,11111222,99999999' 
WAVCIS,ioos:station:WAVCIS:CSI16:1,2010-07-02T19:00:00Z,29.4012,-89.0355,10.0,1.52,337.0,,'11111222,11111222,99999999' 
WAVCIS,ioos:station:WAVCIS:CSI16:1,2010-07-02T20:00:00Z,29.4012,-89.0355,10.0,1.11,287.0,,'11111222,11111222,99999999' 
WAVCIS,ioos:station:WAVCIS:CSI16:1,2010-07-02T21:00:00Z,29.4012,-89.0355,10.0,4.058,276.0,,'11111222,11111222,99999999' 
WAVCIS,ioos:station:WAVCIS:CSI16:1,2010-07-02T22:00:00Z,29.4012,-89.0355,10.0,4.694,320.0,,'11111222,11111222,99999999' 
WAVCIS,ioos:station:WAVCIS:CSI16:1,2010-07-02T23:00:00Z,29.4012,-89.0355,10.0,3.08,337.0,,'11111222,11111222,99999999' 
WAVCIS,ioos:station:WAVCIS:CSI16:1,2010-07-03T00:00:00Z,29.4012,-89.0355,10.0,2.133,1.0,,'11111222,11111222,99999999' 
WAVCIS,ioos:station:WAVCIS:CSI16:1,2010-07-03T01:00:00Z,29.4012,-89.0355,10.0,1.402,37.0,,'11111222,11111222,99999999' 
WAVCIS,ioos:station:WAVCIS:CSI16:1,2010-07-03T02:00:00Z,29.4012,-89.0355,10.0,2.432,26.0,,'11111222,11111222,99999999' 
WAVCIS,ioos:station:WAVCIS:CSI16:1,2010-07-03T03:00:00Z,29.4012,-89.0355,10.0,3.26,44.0,,'11111222,11111222,99999999' 
WAVCIS,ioos:station:WAVCIS:CSI16:1,2010-07-03T04:00:00Z,29.4012,-89.0355,10.0,3.764,12.0,,'11111222,11111222,99999999' 
WAVCIS,ioos:station:WAVCIS:CSI16:1,2010-07-03T05:00:00Z,29.4012,-89.0355,10.0,4.167,15.0,,'11111222,11111222,99999999' 
WAVCIS,ioos:station:WAVCIS:CSI16:1,2010-07-03T06:00:00Z,29.4012,-89.0355,10.0,3.634,31.0,,'11111222,11111222,99999999' 
WAVCIS,ioos:station:WAVCIS:CSI16:1,2010-07-03T07:00:00Z,29.4012,-89.0355,10.0,4.906,25.0,,'11111222,11111222,99999999' 
WAVCIS,ioos:station:WAVCIS:CSI16:1,2010-07-03T08:00:00Z,29.4012,-89.0355,10.0,2.862,42.0,,'11111222,11111222,99999999' 
WAVCIS,ioos:station:WAVCIS:CSI16:1,2010-07-03T09:00:00Z,29.4012,-89.0355,10.0,5.009,81.0,,'11111222,11111222,99999999' 
WAVCIS,ioos:station:WAVCIS:CSI16:1,2010-07-03T10:00:00Z,29.4012,-89.0355,10.0,7.93,89.0,,'11111222,11111222,99999999' 
WAVCIS,ioos:station:WAVCIS:CSI16:1,2010-07-03T11:00:00Z,29.4012,-89.0355,10.0,6.937,80.0,,'11111222,11111222,99999999' 
WAVCIS,ioos:station:WAVCIS:CSI16:1,2010-07-03T12:00:00Z,29.4012,-89.0355,10.0,4.791,74.0,,'11111222,11111222,99999999' 
WAVCIS,ioos:station:WAVCIS:CSI16:1,2010-07-03T13:00:00Z,29.4012,-89.0355,10.0,6.609,105.0,,'11111222,11111222,99999999' 
WAVCIS,ioos:station:WAVCIS:CSI16:1,2010-07-03T14:00:00Z,29.4012,-89.0355,10.0,6.112,85.0,,'11111222,11111222,99999999' 
WAVCIS,ioos:station:WAVCIS:CSI16:1,2010-07-03T15:00:00Z,29.4012,-89.0355,10.0,3.962,78.0,,'11111222,11111222,99999999' 
WAVCIS,ioos:station:WAVCIS:CSI16:1,2010-07-03T16:00:00Z,29.4012,-89.0355,10.0,4.508,84.0,,'11111222,11111222,99999999' 
WAVCIS,ioos:station:WAVCIS:CSI16:1,2010-07-03T17:00:00Z,29.4012,-89.0355,10.0,3.427,70.0,,'11111222,11111222,99999999' 
WAVCIS,ioos:station:WAVCIS:CSI16:1,2010-07-03T18:00:00Z,29.4012,-89.0355,10.0,8.42,84.0,,'11111222,11111222,99999999' 
WAVCIS,ioos:station:WAVCIS:CSI16:1,2010-07-03T19:00:00Z,29.4012,-89.0355,10.0,9.63,82.0,,'11111222,11111222,99999999' 
WAVCIS,ioos:station:WAVCIS:CSI16:1,2010-07-03T20:00:00Z,29.4012,-89.0355,10.0,4.097,66.0,,'11111222,11111222,99999999' 
WAVCIS,ioos:station:WAVCIS:CSI16:1,2010-07-03T21:00:00Z,29.4012,-89.0355,10.0,5.93,74.0,,'11111222,11111222,99999999' 
WAVCIS,ioos:station:WAVCIS:CSI16:1,2010-07-03T22:00:00Z,29.4012,-89.0355,10.0,2.86,67.0,,'11111222,11111222,99999999' 
WAVCIS,ioos:station:WAVCIS:CSI16:1,2010-07-03T23:00:00Z,29.4012,-89.0355,10.0,9.22,100.0,,'11111222,11111222,99999999' 
WAVCIS,ioos:station:WAVCIS:CSI16:1,2010-07-04T00:00:00Z,29.4012,-89.0355,10.0,10.26,111.0,,'11111222,11111222,99999999' 
WAVCIS,ioos:station:WAVCIS:CSI16:1,2010-07-04T01:00:00Z,29.4012,-89.0355,10.0,9.77,81.0,,'11111222,11111222,99999999' 
WAVCIS,ioos:station:WAVCIS:CSI16:1,2010-07-04T02:00:00Z,29.4012,-89.0355,10.0,10.19,84.0,,'11111222,11111222,99999999' 
WAVCIS,ioos:station:WAVCIS:CSI16:1,2010-07-04T03:00:00Z,29.4012,-89.0355,10.0,10.79,85.0,,'11111222,11111222,99999999' 
WAVCIS,ioos:station:WAVCIS:CSI16:1,2010-07-04T04:00:00Z,29.4012,-89.0355,10.0,11.41,83.0,,'11111222,11111222,99999999' 
WAVCIS,ioos:station:WAVCIS:CSI16:1,2010-07-04T05:00:00Z,29.4012,-89.0355,10.0,10.45,87.0,,'11111222,11111222,99999999' 
WAVCIS,ioos:station:WAVCIS:CSI16:1,2010-07-04T06:00:00Z,29.4012,-89.0355,10.0,9.94,92.0,,'11111222,11111222,99999999' 
WAVCIS,ioos:station:WAVCIS:CSI16:1,2010-07-04T07:00:00Z,29.4012,-89.0355,10.0,9.3,96.0,,'11111222,11111222,99999999' 
WAVCIS,ioos:station:WAVCIS:CSI16:1,2010-07-04T08:00:00Z,29.4012,-89.0355,10.0,8.88,96.0,,'11111222,11111222,99999999' 
WAVCIS,ioos:station:WAVCIS:CSI16:1,2010-07-04T09:00:00Z,29.4012,-89.0355,10.0,8.98,101.0,,'11111222,11111222,99999999' 
WAVCIS,ioos:station:WAVCIS:CSI16:1,2010-07-04T10:00:00Z,29.4012,-89.0355,10.0,9.18,102.0,,'11111222,11111222,99999999' 
WAVCIS,ioos:station:WAVCIS:CSI16:1,2010-07-04T11:00:00Z,29.4012,-89.0355,10.0,8.45,101.0,,'11111222,11111222,99999999' 
WAVCIS,ioos:station:WAVCIS:CSI16:1,2010-07-04T12:00:00Z,29.4012,-89.0355,10.0,7.81,102.0,,'11111222,11111222,99999999' 
WAVCIS,ioos:station:WAVCIS:CSI16:1,2010-07-04T13:00:00Z,29.4012,-89.0355,10.0,7.44,110.0,,'11111222,11111222,99999999' 
WAVCIS,ioos:station:WAVCIS:CSI16:1,2010-07-04T14:00:00Z,29.4012,-89.0355,10.0,6.511,112.0,,'11111222,11111222,99999999' 
WAVCIS,ioos:station:WAVCIS:CSI16:1,2010-07-04T15:00:00Z,29.4012,-89.0355,10.0,6.144,103.0,,'11111222,11111222,99999999' 
WAVCIS,ioos:station:WAVCIS:CSI16:1,2010-07-04T16:00:00Z,29.4012,-89.0355,10.0,6.908,110.0,,'11111222,11111222,99999999' 
WAVCIS,ioos:station:WAVCIS:CSI16:1,2010-07-04T17:00:00Z,29.4012,-89.0355,10.0,6.528,100.0,,'11111222,11111222,99999999' 
WAVCIS,ioos:station:WAVCIS:CSI16:1,2010-07-04T18:00:00Z,29.4012,-89.0355,10.0,1.735,44.0,,'11111222,11111222,99999999' 
WAVCIS,ioos:station:WAVCIS:CSI16:1,2010-07-04T19:00:00Z,29.4012,-89.0355,10.0,5.252,50.0,,'11111222,11111222,99999999' 
WAVCIS,ioos:station:WAVCIS:CSI16:1,2010-07-04T20:00:00Z,29.4012,-89.0355,10.0,2.167,54.0,,'11111222,11111222,99999999' 
WAVCIS,ioos:station:WAVCIS:CSI16:1,2010-07-04T21:00:00Z,29.4012,-89.0355,10.0,4.437,72.0,,'11111222,11111222,99999999' 
WAVCIS,ioos:station:WAVCIS:CSI16:1,2010-07-04T22:00:00Z,29.4012,-89.0355,10.0,5.39,75.0,,'11111222,11111222,99999999' 
WAVCIS,ioos:station:WAVCIS:CSI16:1,2010-07-04T23:00:00Z,29.4012,-89.0355,10.0,5.139,81.0,,'11111222,11111222,99999999' 
WAVCIS,ioos:station:WAVCIS:CSI16:1,2010-07-05T00:00:00Z,29.4012,-89.0355,10.0,7.02,78.0,,'11111222,11111222,99999999' 
WAVCIS,ioos:station:WAVCIS:CSI16:1,2010-07-05T01:00:00Z,29.4012,-89.0355,10.0,7.57,96.0,,'11111222,11111222,99999999' 
WAVCIS,ioos:station:WAVCIS:CSI16:1,2010-07-05T02:00:00Z,29.4012,-89.0355,10.0,6.812,98.0,,'11111222,11111222,99999999' 
WAVCIS,ioos:station:WAVCIS:CSI16:1,2010-07-05T03:00:00Z,29.4012,-89.0355,10.0,7.03,102.0,,'11111222,11111222,99999999' 
WAVCIS,ioos:station:WAVCIS:CSI16:1,2010-07-05T04:00:00Z,29.4012,-89.0355,10.0,6.203,97.0,,'11111222,11111222,99999999' 
WAVCIS,ioos:station:WAVCIS:CSI16:1,2010-07-05T05:00:00Z,29.4012,-89.0355,10.0,6.062,103.0,,'11111222,11111222,99999999' 
WAVCIS,ioos:station:WAVCIS:CSI16:1,2010-07-05T06:00:00Z,29.4012,-89.0355,10.0,5.912,141.0,,'11111222,11111222,99999999' 
WAVCIS,ioos:station:WAVCIS:CSI16:1,2010-07-05T07:00:00Z,29.4012,-89.0355,10.0,6.273,158.0,,'11111222,11111222,99999999' 
WAVCIS,ioos:station:WAVCIS:CSI16:1,2010-07-05T08:00:00Z,29.4012,-89.0355,10.0,6.888,149.0,,'11111222,11111222,99999999' 
WAVCIS,ioos:station:WAVCIS:CSI16:1,2010-07-05T09:00:00Z,29.4012,-89.0355,10.0,6.062,155.0,,'11111222,11111222,99999999' 
WAVCIS,ioos:station:WAVCIS:CSI16:1,2010-07-05T10:00:00Z,29.4012,-89.0355,10.0,5.922,146.0,,'11111222,11111222,99999999' 
WAVCIS,ioos:station:WAVCIS:CSI16:1,2010-07-05T11:00:00Z,29.4012,-89.0355,10.0,5.084,140.0,,'11111222,11111222,99999999' 
WAVCIS,ioos:station:WAVCIS:CSI16:1,2010-07-05T12:00:00Z,29.4012,-89.0355,10.0,6.141,139.0,,'11111222,11111222,99999999' 
WAVCIS,ioos:station:WAVCIS:CSI16:1,2010-07-05T13:00:00Z,29.4012,-89.0355,10.0,4.635,128.0,,'11111222,11111222,99999999' 
WAVCIS,ioos:station:WAVCIS:CSI16:1,2010-07-05T14:00:00Z,29.4012,-89.0355,10.0,6.213,142.0,,'11111222,11111222,99999999' 
WAVCIS,ioos:station:WAVCIS:CSI16:1,2010-07-05T15:00:00Z,29.4012,-89.0355,10.0,4.123,137.0,,'11111222,11111222,99999999' 
WAVCIS,ioos:station:WAVCIS:CSI16:1,2010-07-05T16:00:00Z,29.4012,-89.0355,10.0,10.7,214.0,,'11111222,11111222,99999999' 
WAVCIS,ioos:station:WAVCIS:CSI16:1,2010-07-05T17:00:00Z,29.4012,-89.0355,10.0,1.816,242.0,,'11111222,11111222,99999999' 
WAVCIS,ioos:station:WAVCIS:CSI16:1,2010-07-05T18:00:00Z,29.4012,-89.0355,10.0,2.461,107.0,,'11111222,11111222,99999999' 
WAVCIS,ioos:station:WAVCIS:CSI16:1,2010-07-05T19:00:00Z,29.4012,-89.0355,10.0,2.177,122.0,,'11111222,11111222,99999999' 
WAVCIS,ioos:station:WAVCIS:CSI16:1,2010-07-05T20:00:00Z,29.4012,-89.0355,10.0,10.48,158.0,,'11111222,11111222,99999999' 
WAVCIS,ioos:station:WAVCIS:CSI16:1,2010-07-05T21:00:00Z,29.4012,-89.0355,10.0,6.94,127.0,,'11111222,11111222,99999999' 
WAVCIS,ioos:station:WAVCIS:CSI16:1,2010-07-05T22:00:00Z,29.4012,-89.0355,10.0,5.989,107.0,,'11111222,11111222,99999999' 
WAVCIS,ioos:station:WAVCIS:CSI16:1,2010-07-05T23:00:00Z,29.4012,-89.0355,10.0,5.962,109.0,,'11111222,11111222,99999999' 
WAVCIS,ioos:station:WAVCIS:CSI16:1,2010-07-06T00:00:00Z,29.4012,-89.0355,10.0,7.09,128.0,,'11111222,11111222,99999999' 
WAVCIS,ioos:station:WAVCIS:CSI16:1,2010-07-06T01:00:00Z,29.4012,-89.0355,10.0,6.582,117.0,,'11111222,11111222,99999999' 
WAVCIS,ioos:station:WAVCIS:CSI16:1,2010-07-06T02:00:00Z,29.4012,-89.0355,10.0,7.93,124.0,,'11111222,11111222,99999999' 
WAVCIS,ioos:station:WAVCIS:CSI16:1,2010-07-06T03:00:00Z,29.4012,-89.0355,10.0,8.76,121.0,,'11111222,11111222,99999999' 
WAVCIS,ioos:station:WAVCIS:CSI16:1,2010-07-06T04:00:00Z,29.4012,-89.0355,10.0,8.46,113.0,,'11111222,11111222,99999999' 
WAVCIS,ioos:station:WAVCIS:CSI16:1,2010-07-06T05:00:00Z,29.4012,-89.0355,10.0,8.6,113.0,,'11111222,11111222,99999999' 
WAVCIS,ioos:station:WAVCIS:CSI16:1,2010-07-06T06:00:00Z,29.4012,-89.0355,10.0,10.63,103.0,,'11111222,11111222,99999999' 
WAVCIS,ioos:station:WAVCIS:CSI16:1,2010-07-06T07:00:00Z,29.4012,-89.0355,10.0,8.33,112.0,,'11111222,11111222,99999999' 
WAVCIS,ioos:station:WAVCIS:CSI16:1,2010-07-06T08:00:00Z,29.4012,-89.0355,10.0,5.673,109.0,,'11111222,11111222,99999999' 
WAVCIS,ioos:station:WAVCIS:CSI16:1,2010-07-06T09:00:00Z,29.4012,-89.0355,10.0,8.75,126.0,,'11111222,11111222,99999999' 
WAVCIS,ioos:station:WAVCIS:CSI16:1,2010-07-06T10:00:00Z,29.4012,-89.0355,10.0,8.26,122.0,,'11111222,11111222,99999999' 
WAVCIS,ioos:station:WAVCIS:CSI16:1,2010-07-06T11:00:00Z,29.4012,-89.0355,10.0,9.03,119.0,,'11111222,11111222,99999999' 
WAVCIS,ioos:station:WAVCIS:CSI16:1,2010-07-06T12:00:00Z,29.4012,-89.0355,10.0,8.04,122.0,,'11111222,11111222,99999999' 
WAVCIS,ioos:station:WAVCIS:CSI16:1,2010-07-06T13:00:00Z,29.4012,-89.0355,10.0,7.95,114.0,,'11111222,11111222,99999999' 
WAVCIS,ioos:station:WAVCIS:CSI16:1,2010-07-06T14:00:00Z,29.4012,-89.0355,10.0,8.82,107.0,,'11111222,11111222,99999999' 
WAVCIS,ioos:station:WAVCIS:CSI16:1,2010-07-06T15:00:00Z,29.4012,-89.0355,10.0,9.12,98.0,,'11111222,11111222,99999999' 
WAVCIS,ioos:station:WAVCIS:CSI16:1,2010-07-06T16:00:00Z,29.4012,-89.0355,10.0,8.56,109.0,,'11111222,11111222,99999999' 
WAVCIS,ioos:station:WAVCIS:CSI16:1,2010-07-06T17:00:00Z,29.4012,-89.0355,10.0,5.83,100.0,,'11111222,11111222,99999999' 
WAVCIS,ioos:station:WAVCIS:CSI16:1,2010-07-06T18:00:00Z,29.4012,-89.0355,10.0,8.27,100.0,,'11111222,11111222,99999999' 
WAVCIS,ioos:station:WAVCIS:CSI16:1,2010-07-06T19:00:00Z,29.4012,-89.0355,10.0,11.97,112.0,,'11111222,11111222,99999999' 
WAVCIS,ioos:station:WAVCIS:CSI16:1,2010-07-06T20:00:00Z,29.4012,-89.0355,10.0,14.49,117.0,,'11111222,11111222,99999999' 
WAVCIS,ioos:station:WAVCIS:CSI16:1,2010-07-06T21:00:00Z,29.4012,-89.0355,10.0,13.81,151.0,,'11111222,11111222,99999999' 
WAVCIS,ioos:station:WAVCIS:CSI16:1,2010-07-06T22:00:00Z,29.4012,-89.0355,10.0,10.22,148.0,,'11111222,11111222,99999999' 
WAVCIS,ioos:station:WAVCIS:CSI16:1,2010-07-06T23:00:00Z,29.4012,-89.0355,10.0,12.4,132.0,,'11111222,11111222,99999999' 
WAVCIS,ioos:station:WAVCIS:CSI16:1,2010-07-07T00:00:00Z,29.4012,-89.0355,10.0,10.13,122.0,,'11111222,11111222,99999999' 
WAVCIS,ioos:station:WAVCIS:CSI16:1,2010-07-07T01:00:00Z,29.4012,-89.0355,10.0,12.24,117.0,,'11111222,11111222,99999999' 
WAVCIS,ioos:station:WAVCIS:CSI16:1,2010-07-07T02:00:00Z,29.4012,-89.0355,10.0,10.9,121.0,,'11111222,11111222,99999999' 
WAVCIS,ioos:station:WAVCIS:CSI16:1,2010-07-07T03:00:00Z,29.4012,-89.0355,10.0,11.0,122.0,,'11111222,11111222,99999999' 
WAVCIS,ioos:station:WAVCIS:CSI16:1,2010-07-07T04:00:00Z,29.4012,-89.0355,10.0,11.77,114.0,,'11111222,11111222,99999999' 
WAVCIS,ioos:station:WAVCIS:CSI16:1,2010-07-07T05:00:00Z,29.4012,-89.0355,10.0,10.91,120.0,,'11111222,11111222,99999999' 
WAVCIS,ioos:station:WAVCIS:CSI16:1,2010-07-07T06:00:00Z,29.4012,-89.0355,10.0,9.58,134.0,,'11111222,11111222,99999999' 
WAVCIS,ioos:station:WAVCIS:CSI16:1,2010-07-07T07:00:00Z,29.4012,-89.0355,10.0,8.03,129.0,,'11111222,11111222,99999999' 
WAVCIS,ioos:station:WAVCIS:CSI16:1,2010-07-07T08:00:00Z,29.4012,-89.0355,10.0,9.69,127.0,,'11111222,11111222,99999999' 
WAVCIS,ioos:station:WAVCIS:CSI16:1,2010-07-07T09:00:00Z,29.4012,-89.0355,10.0,9.2,118.0,,'11111222,11111222,99999999' 
WAVCIS,ioos:station:WAVCIS:CSI16:1,2010-07-07T10:00:00Z,29.4012,-89.0355,10.0,7.76,119.0,,'11111222,11111222,99999999' 
WAVCIS,ioos:station:WAVCIS:CSI16:1,2010-07-07T11:00:00Z,29.4012,-89.0355,10.0,8.7,103.0,,'11111222,11111222,99999999' 
WAVCIS,ioos:station:WAVCIS:CSI16:1,2010-07-07T12:00:00Z,29.4012,-89.0355,10.0,9.31,106.0,,'11111222,11111222,99999999' 
WAVCIS,ioos:station:WAVCIS:CSI16:1,2010-07-07T13:00:00Z,29.4012,-89.0355,10.0,9.34,107.0,,'11111222,11111222,99999999' 
WAVCIS,ioos:station:WAVCIS:CSI16:1,2010-07-07T14:00:00Z,29.4012,-89.0355,10.0,10.23,111.0,,'11111222,11111222,99999999' 
WAVCIS,ioos:station:WAVCIS:CSI16:1,2010-07-07T15:00:00Z,29.4012,-89.0355,10.0,10.3,109.0,,'11111222,11111222,99999999' 
WAVCIS,ioos:station:WAVCIS:CSI16:1,2010-07-07T16:00:00Z,29.4012,-89.0355,10.0,10.03,111.0,,'11111222,11111222,99999999' 
WAVCIS,ioos:station:WAVCIS:CSI16:1,2010-07-07T17:00:00Z,29.4012,-89.0355,10.0,9.53,109.0,,'11111222,11111222,99999999' 
WAVCIS,ioos:station:WAVCIS:CSI16:1,2010-07-07T18:00:00Z,29.4012,-89.0355,10.0,8.03,107.0,,'11111222,11111222,99999999' 
WAVCIS,ioos:station:WAVCIS:CSI16:1,2010-07-07T19:00:00Z,29.4012,-89.0355,10.0,8.5,103.0,,'11111222,11111222,99999999' 
WAVCIS,ioos:station:WAVCIS:CSI16:1,2010-07-07T20:00:00Z,29.4012,-89.0355,10.0,7.86,111.0,,'11111222,11111222,99999999' 
WAVCIS,ioos:station:WAVCIS:CSI16:1,2010-07-07T21:00:00Z,29.4012,-89.0355,10.0,7.43,117.0,,'11111222,11111222,99999999' 
WAVCIS,ioos:station:WAVCIS:CSI16:1,2010-07-07T22:00:00Z,29.4012,-89.0355,10.0,7.14,116.0,,'11111222,11111222,99999999' 
WAVCIS,ioos:station:WAVCIS:CSI16:1,2010-07-07T23:00:00Z,29.4012,-89.0355,10.0,6.154,111.0,,'11111222,11111222,99999999' 
WAVCIS,ioos:station:WAVCIS:CSI16:1,2010-07-08T00:00:00Z,29.4012,-89.0355,10.0,5.387,110.0,,'11111222,11111222,99999999' 
WAVCIS,ioos:station:WAVCIS:CSI16:1,2010-07-08T01:00:00Z,29.4012,-89.0355,10.0,5.769,118.0,,'11111222,11111222,99999999' 
WAVCIS,ioos:station:WAVCIS:CSI16:1,2010-07-08T02:00:00Z,29.4012,-89.0355,10.0,5.357,104.0,,'11111222,11111222,99999999' 
WAVCIS,ioos:station:WAVCIS:CSI16:1,2010-07-08T03:00:00Z,29.4012,-89.0355,10.0,6.121,108.0,,'11111222,11111222,99999999' 
WAVCIS,ioos:station:WAVCIS:CSI16:1,2010-07-08T04:00:00Z,29.4012,-89.0355,10.0,5.681,106.0,,'11111222,11111222,99999999' 
WAVCIS,ioos:station:WAVCIS:CSI16:1,2010-07-08T05:00:00Z,29.4012,-89.0355,10.0,5.65,107.0,,'11111222,11111222,99999999' 
WAVCIS,ioos:station:WAVCIS:CSI16:1,2010-07-08T06:00:00Z,29.4012,-89.0355,10.0,5.031,109.0,,'11111222,11111222,99999999' 
WAVCIS,ioos:station:WAVCIS:CSI16:1,2010-07-08T07:00:00Z,29.4012,-89.0355,10.0,4.736,106.0,,'11111222,11111222,99999999' 
WAVCIS,ioos:station:WAVCIS:CSI16:1,2010-07-08T08:00:00Z,29.4012,-89.0355,10.0,4.045,114.0,,'11111222,11111222,99999999' 
WAVCIS,ioos:station:WAVCIS:CSI16:1,2010-07-08T09:00:00Z,29.4012,-89.0355,10.0,3.93,103.0,,'11111222,11111222,99999999' 
WAVCIS,ioos:station:WAVCIS:CSI16:1,2010-07-08T10:00:00Z,29.4012,-89.0355,10.0,3.796,99.0,,'11111222,11111222,99999999' 
WAVCIS,ioos:station:WAVCIS:CSI16:1,2010-07-08T11:00:00Z,29.4012,-89.0355,10.0,4.357,91.0,,'11111222,11111222,99999999' 
WAVCIS,ioos:station:WAVCIS:CSI16:1,2010-07-08T12:00:00Z,29.4012,-89.0355,10.0,1.573,68.0,,'11111222,11111222,99999999' 
WAVCIS,ioos:station:WAVCIS:CSI16:1,2010-07-08T13:00:00Z,29.4012,-89.0355,10.0,1.392,54.0,,'11111222,11111222,99999999' 
WAVCIS,ioos:station:WAVCIS:CSI16:1,2010-07-08T14:00:00Z,29.4012,-89.0355,10.0,3.507,76.0,,'11111222,11111222,99999999' 
WAVCIS,ioos:station:WAVCIS:CSI16:1,2010-07-08T15:00:00Z,29.4012,-89.0355,10.0,1.77,68.0,,'11111222,11111222,99999999' 
WAVCIS,ioos:station:WAVCIS:CSI16:1,2010-07-08T16:00:00Z,29.4012,-89.0355,10.0,5.195,86.0,,'11111222,11111222,99999999' 
WAVCIS,ioos:station:WAVCIS:CSI16:1,2010-07-08T17:00:00Z,29.4012,-89.0355,10.0,5.536,97.0,,'11111222,11111222,99999999' 
WAVCIS,ioos:station:WAVCIS:CSI16:1,2010-07-08T18:00:00Z,29.4012,-89.0355,10.0,4.722,104.0,,'11111222,11111222,99999999' 
WAVCIS,ioos:station:WAVCIS:CSI16:1,2010-07-08T19:00:00Z,29.4012,-89.0355,10.0,4.145,101.0,,'11111222,11111222,99999999' 
WAVCIS,ioos:station:WAVCIS:CSI16:1,2010-07-08T20:00:00Z,29.4012,-89.0355,10.0,3.952,121.0,,'11111222,11111222,99999999' 
WAVCIS,ioos:station:WAVCIS:CSI16:1,2010-07-08T21:00:00Z,29.4012,-89.0355,10.0,2.74,125.0,,'11111222,11111222,99999999' 
WAVCIS,ioos:station:WAVCIS:CSI16:1,2010-07-08T22:00:00Z,29.4012,-89.0355,10.0,3.115,127.0,,'11111222,11111222,99999999' 
WAVCIS,ioos:station:WAVCIS:CSI16:1,2010-07-08T23:00:00Z,29.4012,-89.0355,10.0,2.556,146.0,,'11111222,11111222,99999999' 
WAVCIS,ioos:station:WAVCIS:CSI16:1,2010-07-09T00:00:00Z,29.4012,-89.0355,10.0,3.4,170.0,,'11111222,11111222,99999999' 
WAVCIS,ioos:station:WAVCIS:CSI16:1,2010-07-09T01:00:00Z,29.4012,-89.0355,10.0,2.168,167.0,,'11111222,11111222,99999999' 
WAVCIS,ioos:station:WAVCIS:CSI16:1,2010-07-09T02:00:00Z,29.4012,-89.0355,10.0,2.178,161.0,,'11111222,11111222,99999999' 
WAVCIS,ioos:station:WAVCIS:CSI16:1,2010-07-09T03:00:00Z,29.4012,-89.0355,10.0,1.167,185.0,,'11111222,11111222,99999999' 
WAVCIS,ioos:station:WAVCIS:CSI16:1,2010-07-09T04:00:00Z,29.4012,-89.0355,10.0,0.694,324.0,,'11111222,11111222,99999999' 
WAVCIS,ioos:station:WAVCIS:CSI16:1,2010-07-09T05:00:00Z,29.4012,-89.0355,10.0,1.064,319.0,,'11111222,11111222,99999999' 